Weather History for Reading, PA

Change the Weather History Date:

Monday, March 3, 2014

  Actual Average Record
Temperature  
Mean Temperature 22 °F 37 °F  
Max Temperature 30 °F 46 °F 70 °F (1991)
Min Temperature 13 °F 27 °F 9 °F (1980)
Degree Days  
Heating Degree Days 43 28  
Month to date heating degree days 119 86  
Since 1 July heating degree days 4429 4128  
Cooling Degree Days 0 0  
Month to date cooling degree days 0 0  
Year to date cooling degree days 0 0  
Moisture  
Dew Point 7 °F    
Average Humidity 59    
Maximum Humidity 77    
Minimum Humidity 41    
Precipitation  
Precipitation T in 0.08 in 2.07 in (1906)
Month to date precipitation 0.03 0.24  
Year to date precipitation 6.71 5.77  
Sea Level Pressure  
Sea Level Pressure 30.20 in    
Wind  
Wind Speed 10 mph (North)    
Max Wind Speed 22 mph    
Max Gust Speed 26 mph    
Visibility 7 miles    
Events Snow    
T = Trace of Precipitation, MM = Missing Value Source: NWS Daily Summary

Daily Weather History Graph

Daily Weather History Graph

Search for Another Location

Airport:

Trip Planner

Search our weather history database for the weather conditions in past years. The results will help you decide how hot, cold, wet, or windy it might be!

Date:

Astronomy

Mar. 03, 2014 Rise Set
Actual Time 6:34 AM EST 5:57 PM EST
Civil Twilight 6:07 AM EST 6:24 PM EST
Nautical Twilight 5:35 AM EST 6:56 PM EST
Astronomical Twilight 5:04 AM EST 7:28 PM EST
Moon 7:40 AM EST (3/3) 8:58 PM EST (3/3)
Length of Visible Light 12h 17m
Length of Day
11h 23m
Waxing Crescent, 8% of the Moon is Illuminated
Mar 3
Waxing Crescent
Mar 8
First Quarter
Mar 16
Full
Mar 23
Last Quarter
Mar 30
New

Hourly Weather History & Observations

Time (EST) Temp. Windchill Dew Point Humidity Pressure Visibility Wind Dir Wind Speed Gust Speed Precip Events Conditions
12:54 AM 28.0 °F 18.6 °F 16.0 °F 61% 30.06 in 10.0 mi North 10.4 mph - 0.00 in   Overcast
1:54 AM 26.1 °F 16.2 °F 18.0 °F 71% 30.08 in 6.0 mi North 10.4 mph - 0.00 in Snow Light Snow
2:26 AM 25.0 °F 14.8 °F 17.1 °F 72% 30.06 in 4.0 mi North 10.4 mph - 0.00 in Snow Light Snow
2:50 AM 24.8 °F 13.4 °F 17.6 °F 74% 30.06 in 2.5 mi North 12.7 mph 20.7 mph 0.00 in Snow Light Snow
2:54 AM 24.1 °F 13.1 °F 17.1 °F 75% 30.09 in 2.5 mi North 11.5 mph - 0.00 in Snow Light Snow
3:02 AM 23.0 °F 10.6 °F 17.1 °F 78% 30.06 in 3.0 mi North 13.8 mph 18.4 mph 0.00 in Snow Light Snow
3:32 AM 21.9 °F 10.4 °F 17.1 °F 82% 30.07 in 2.5 mi North 11.5 mph - 0.00 in Snow Light Snow
3:42 AM 21.9 °F 10.4 °F 17.1 °F 82% 30.07 in 2.0 mi NNE 11.5 mph 18.4 mph 0.00 in Snow Light Snow
3:49 AM 21.2 °F 10.1 °F 15.8 °F 80% 30.08 in 1.8 mi North 10.4 mph - 0.00 in Snow Light Snow
3:54 AM 21.0 °F 8.6 °F 16.0 °F 81% 30.10 in 1.8 mi North 12.7 mph - 0.00 in Snow Light Snow
4:01 AM 21.0 °F 9.9 °F 15.1 °F 78% 30.08 in 2.5 mi North 10.4 mph - 0.00 in Snow Light Snow
4:12 AM 21.0 °F 10.6 °F 16.0 °F 81% 30.08 in 3.0 mi North 9.2 mph - 0.00 in Snow Light Snow
4:36 AM 19.9 °F 7.9 °F 14.0 °F 78% 30.09 in 6.0 mi North 11.5 mph - 0.00 in Snow Light Snow
4:54 AM 19.9 °F 7.9 °F 12.0 °F 71% 30.13 in 6.0 mi NNE 11.5 mph - 0.00 in Snow Light Snow
5:54 AM 19.0 °F 5.0 °F 1.0 °F 46% 30.17 in 8.0 mi North 15.0 mph - 0.00 in   Overcast
6:54 AM 17.1 °F 0.6 °F -0.0 °F 47% 30.20 in 10.0 mi North 19.6 mph 24.2 mph N/A   Overcast
7:54 AM 16.0 °F 2.3 °F 1.0 °F 52% 30.22 in 10.0 mi North 12.7 mph - N/A   Overcast
8:54 AM 16.0 °F 3.6 °F -0.0 °F 49% 30.24 in 10.0 mi North 10.4 mph - N/A   Mostly Cloudy
9:54 AM 17.1 °F 5.0 °F -0.0 °F 47% 30.25 in 10.0 mi North 10.4 mph - N/A   Scattered Clouds
10:54 AM 17.1 °F 4.3 °F -0.0 °F 47% 30.25 in 10.0 mi NNW 11.5 mph - N/A   Partly Cloudy
11:54 AM 18.0 °F 6.1 °F 1.0 °F 48% 30.27 in 10.0 mi NNW 10.4 mph - N/A   Mostly Cloudy
12:54 PM 18.0 °F 4.8 °F 1.0 °F 48% 30.24 in 10.0 mi North 12.7 mph - N/A   Clear
1:54 PM 19.0 °F 7.5 °F 1.9 °F 47% 30.25 in 10.0 mi NNW 10.4 mph - N/A   Clear
2:54 PM 19.9 °F 6.7 °F 1.0 °F 44% 30.25 in 10.0 mi North 13.8 mph - N/A   Clear
3:54 PM 19.9 °F 7.9 °F 1.0 °F 44% 30.27 in 10.0 mi North 11.5 mph - N/A   Clear
4:54 PM 21.0 °F 10.6 °F 1.9 °F 44% 30.29 in 10.0 mi NNW 9.2 mph - N/A   Clear
5:54 PM 19.9 °F 11.1 °F 1.9 °F 46% 30.29 in 10.0 mi NNW 6.9 mph - N/A   Clear
6:54 PM 19.0 °F 11.1 °F -0.0 °F 43% 30.32 in 10.0 mi WNW 5.8 mph - N/A   Clear
7:54 PM 19.0 °F 12.3 °F -0.9 °F 42% 30.34 in 10.0 mi WNW 4.6 mph - N/A   Clear
8:54 PM 18.0 °F 7.7 °F -2.0 °F 41% 30.35 in 10.0 mi NNW 8.1 mph - N/A   Clear
9:54 PM 17.1 °F 6.6 °F -2.0 °F 43% 30.38 in 10.0 mi NNW 8.1 mph - N/A   Clear
10:54 PM 16.0 °F 5.3 °F -2.0 °F 45% 30.38 in 10.0 mi North 8.1 mph - N/A   Clear
11:54 PM 14.0 °F 5.1 °F -2.0 °F 49% 30.38 in 10.0 mi NNW 5.8 mph - N/A   Clear